Location: Arrington
(35.8681°N, 86.7092°W)
Time: 22:50:37
(UTC+00:00)

Cosmos 2333 Rocket - Pass Details

Date: 23 November 2019
Orbit: 837 x 865 km, 70.8° (Epoch: 10 December)

Event Time Altitude Azimuth Distance (km) Brightness Sun altitude
Exits shadow 11:09:40 - 344° (NNW) 3,384 5.0 -16.3°
Reaches altitude 10° 11:12:03 10° 349° (N) 2,511 4.4 -15.9°
Maximum altitude 11:17:39 50° 65° (ENE) 1,087 3.1 -14.8°
Drops below altitude 10° 11:23:12 10° 140° (SE) 2,490 5.5 -13.7°
Sets 11:25:43 0° 145° (SE) 3,420 6.2 -13.2°
